Regional Weather Roundup
Issued by NWS

Home | Current Version | Previous Version | Text Only | Print | Product List | Glossary On
Versions: 1 2 3 4 5 6 7 8 9 10 11 12 13 14 15 16 17 18 19 20 21 22 23 24 25 26 27 28 29 30 31 32 33 34 35 36 37 38 39 40 41 42 43 44 45 46 47 48 49 50
000
ASUS43 KLMK 062002
RWRKY
KENTUCKY REGIONAL WEATHER ROUNDUP
NATIONAL WEATHER SERVICE LOUISVILLE KY
400 PM EDT MON JUL 06 2015

NOTE "FAIR" INDICATES FEW OR NO CLOUDS BELOW 12,000 FEET
WITH NO SIGNIFICANT WEATHER AND/OR OBSTRUCTIONS TO VISIBILITY.

KYZ001>023-026-027-061>063-070>075-062100-
WESTERN AND SOUTH CENTRAL KENTUCKY

CITY           SKY/WX    TMP DP  RH WIND       PRES   REMARKS
PADUCAH        PTSUNNY   86  72  62 SW9G18    30.01F HX  92
HENDERSON      PTSUNNY   86  72  62 S8        30.00F HX  92
OWENSBORO      MOSUNNY   87  73  62 S15       30.03F HX  94
HOPKINSVILLE   PTSUNNY   84  72  66 S13       30.06F HX  90
BOWLING GREEN  MOSUNNY   87  70  56 SW9       30.07F HX  92
GLASGOW        NOT AVBL
$$

KYZ024-025-028>034-038-045-046-053-062100-
NORTH CENTRAL KENTUCKY

CITY           SKY/WX    TMP DP  RH WIND       PRES   REMARKS
LOUISVILLE/SDF MOSUNNY   87  68  52 S6        30.03F HX  90
LOUISVILLE/LOU MOSUNNY   85  68  56 SW7       30.04F
FORT KNOX      MOSUNNY   85  69  58 S10       30.04F
$$

KYZ035>037-039>044-047>052-055>060-089>105-062100-
NORTHEAST KENTUCKY

CITY           SKY/WX    TMP DP  RH WIND       PRES   REMARKS
LEXINGTON      PTSUNNY   82  68  62 SW9       30.08F
COVINGTON      MOSUNNY   84  66  54 W9        30.06F
FRANKFORT      SUNNY     84  66  54 SW9       30.06F
$$

KYZ054-064>069-076>088-106>120-062100-
SOUTHEAST KENTUCKY

CITY           SKY/WX    TMP DP  RH WIND       PRES   REMARKS
JACKSON        MOSUNNY   81  69  67 CALM      30.13F
LONDON         MOSUNNY   84  65  52 W9        30.12F
SOMERSET       NOT AVBL
MIDDLESBORO    NOT AVBL
MONTICELLO     PTCLDY    86  69  56 CALM      30.13F HX  90
$$



USA.gov is the U.S. government's official web portal to all federal, state and local government web resources and services.